Time,TemperatureF,DewpointF,PressureIn,WindDirection,WindDirectionDegrees,WindSpeedMPH,WindSpeedGustMPH,Humidity,HourlyPrecipIn,Conditions,Clouds,dailyrainin,SoftwareType,DateUTC
2013-03-11 00:00:00,37.8,30.6,29.98,NE,41,0.0,0.0,75,0.00,,,0.00,Wunderground v.1.13,2013-03-11 04:00:00,
2013-03-11 00:30:00,37.8,30.6,29.98,NE,41,0.0,0.0,75,0.00,,,0.00,Wunderground v.1.13,2013-03-11 04:30:00,
2013-03-11 01:00:00,37.3,30.7,29.95,NE,41,0.0,0.0,77,0.00,,,0.00,Wunderground v.1.13,2013-03-11 05:00:00,
2013-03-11 01:30:00,37.3,30.7,29.94,NE,41,0.0,0.0,77,0.00,,,0.00,Wunderground v.1.13,2013-03-11 05:30:00,
2013-03-11 02:00:00,37.6,30.7,29.94,NE,41,0.0,0.0,76,0.00,,,0.00,Wunderground v.1.13,2013-03-11 06:00:00,
2013-03-11 02:30:00,40.6,30.1,29.93,NE,43,1.0,1.0,66,0.00,,,0.00,Wunderground v.1.13,2013-03-11 06:30:00,
2013-03-11 03:00:00,39.9,29.8,29.95,NE,43,0.0,0.0,67,0.00,,,0.00,Wunderground v.1.13,2013-03-11 07:00:00,
2013-03-11 03:30:00,40.1,30.0,29.95,NE,43,0.0,0.0,67,0.00,,,0.00,Wunderground v.1.13,2013-03-11 07:30:00,
2013-03-11 04:00:00,37.3,29.8,29.94,NE,43,0.0,0.0,74,0.00,,,0.00,Wunderground v.1.13,2013-03-11 08:00:00,
2013-03-11 04:30:00,37.5,30.3,29.95,NE,43,0.0,0.0,75,0.00,,,0.00,Wunderground v.1.13,2013-03-11 08:30:00,
2013-03-11 05:00:00,37.2,29.7,29.96,NE,43,0.0,0.0,74,0.00,,,0.00,Wunderground v.1.13,2013-03-11 09:00:00,
2013-03-11 05:30:00,36.0,29.8,29.94,NE,43,0.0,0.0,78,0.00,,,0.00,Wunderground v.1.13,2013-03-11 09:30:00,
2013-03-11 06:00:00,36.2,30.3,29.94,NE,43,0.0,0.0,79,0.00,,,0.00,Wunderground v.1.13,2013-03-11 10:00:00,
2013-03-11 06:30:00,36.0,30.4,29.93,NE,43,0.0,0.0,80,0.00,,,0.00,Wunderground v.1.13,2013-03-11 10:30:00,
2013-03-11 07:00:00,36.6,30.7,29.92,NE,43,0.0,0.0,79,0.00,,,0.00,Wunderground v.1.13,2013-03-11 11:00:00,
2013-03-11 07:30:00,36.8,30.6,29.92,NE,43,0.0,0.0,78,0.00,,,0.00,Wunderground v.1.13,2013-03-11 11:30:00,
2013-03-11 08:00:00,36.6,30.7,29.91,NE,43,0.0,0.0,79,0.00,,,0.00,Wunderground v.1.13,2013-03-11 12:00:00,
2013-03-11 08:30:00,38.0,31.1,29.90,NE,43,0.0,0.0,76,0.00,,,0.00,Wunderground v.1.13,2013-03-11 12:30:00,
2013-03-11 09:00:00,40.6,30.1,29.91,NE,43,0.0,0.0,66,0.00,,,0.00,Wunderground v.1.13,2013-03-11 13:00:00,
2013-03-11 09:30:00,40.2,30.5,29.91,NE,43,0.0,0.0,68,0.00,,,0.00,Wunderground v.1.13,2013-03-11 13:30:00,
2013-03-11 10:00:00,42.9,32.3,29.92,NE,43,0.0,0.0,66,0.00,,,0.00,Wunderground v.1.13,2013-03-11 14:00:00,
2013-03-11 10:30:00,43.5,30.9,29.93,NE,43,0.0,0.0,61,0.00,,,0.00,Wunderground v.1.13,2013-03-11 14:30:00,
2013-03-11 11:00:00,43.2,31.4,29.92,NE,43,0.0,0.0,63,0.00,,,0.00,Wunderground v.1.13,2013-03-11 15:00:00,
2013-03-11 11:30:00,43.9,31.3,29.90,NE,43,0.0,0.0,61,0.00,,,0.00,Wunderground v.1.13,2013-03-11 15:30:00,
2013-03-11 12:00:00,45.8,31.9,29.89,NE,43,0.0,0.0,58,0.00,,,0.00,Wunderground v.1.13,2013-03-11 16:00:00,
2013-03-11 12:30:00,49.1,33.6,29.89,NE,43,0.0,0.0,55,0.00,,,0.00,Wunderground v.1.13,2013-03-11 16:30:00,
2013-03-11 13:00:00,47.6,33.5,29.89,NE,43,0.0,0.0,58,0.00,,,0.00,Wunderground v.1.13,2013-03-11 17:00:00,
2013-03-11 13:30:00,46.8,35.3,29.88,NE,43,0.0,0.0,64,0.00,,,0.00,Wunderground v.1.13,2013-03-11 17:30:00,
2013-03-11 14:00:00,46.7,33.5,29.86,NE,43,0.0,0.0,60,0.00,,,0.00,Wunderground v.1.13,2013-03-11 18:00:00,
2013-03-11 14:30:00,45.4,32.7,29.86,NE,43,0.0,1.0,61,0.00,,,0.00,Wunderground v.1.13,2013-03-11 18:30:00,
2013-03-11 15:00:00,45.4,33.5,29.84,NE,43,0.0,0.0,63,0.00,,,0.00,Wunderground v.1.13,2013-03-11 19:00:00,
2013-03-11 15:30:00,46.7,33.5,29.82,NE,43,0.0,0.0,60,0.00,,,0.00,Wunderground v.1.13,2013-03-11 19:30:00,
2013-03-11 16:00:00,46.5,32.5,29.81,NE,43,1.0,1.0,58,0.00,,,0.00,Wunderground v.1.13,2013-03-11 20:00:00,
2013-03-11 16:30:00,46.2,33.5,29.79,NE,43,0.0,0.0,61,0.00,,,0.00,Wunderground v.1.13,2013-03-11 20:30:00,
2013-03-11 17:00:00,45.8,33.1,29.77,NE,43,0.0,0.0,61,0.00,,,0.00,Wunderground v.1.13,2013-03-11 21:00:00,
2013-03-11 17:30:00,44.3,32.9,29.77,NE,43,0.0,0.0,64,0.00,,,0.00,Wunderground v.1.13,2013-03-11 21:30:00,
2013-03-11 18:00:00,43.8,33.2,29.77,NE,43,0.0,0.0,66,0.00,,,0.00,Wunderground v.1.13,2013-03-11 22:00:00,
2013-03-11 18:30:00,43.2,33.0,29.78,NE,43,0.0,0.0,67,0.00,,,0.00,Wunderground v.1.13,2013-03-11 22:30:00,
2013-03-11 19:00:00,40.8,32.1,29.75,NE,43,0.0,0.0,71,0.00,,,0.00,Wunderground v.1.13,2013-03-11 23:00:00,
2013-03-11 19:30:00,39.5,31.6,29.74,NE,43,0.0,1.0,73,0.00,,,0.00,Wunderground v.1.13,2013-03-11 23:30:00,
2013-03-11 20:00:00,38.2,32.3,29.73,NE,43,0.0,0.0,79,0.00,,,0.00,Wunderground v.1.13,2013-03-12 00:00:00,
2013-03-11 20:30:00,38.0,31.7,29.72,NE,43,0.0,0.0,78,0.00,,,0.00,Wunderground v.1.13,2013-03-12 00:30:00,
2013-03-11 21:00:00,39.1,32.5,29.73,NE,43,0.0,0.0,77,0.00,,,0.00,Wunderground v.1.13,2013-03-12 01:00:00,
2013-03-11 21:30:00,38.6,32.0,29.73,NE,43,0.0,0.0,77,0.00,,,0.00,Wunderground v.1.13,2013-03-12 01:30:00,
2013-03-11 22:00:00,38.2,31.9,29.73,NE,43,0.0,0.0,78,0.00,,,0.00,Wunderground v.1.13,2013-03-12 02:00:00,
2013-03-11 22:30:00,40.6,33.0,29.73,East,90,1.0,1.0,74,0.00,,,0.00,Wunderground v.1.13,2013-03-12 02:30:00,
2013-03-11 23:00:00,51.3,29.0,29.72,South,184,6.0,6.0,42,0.00,,,0.00,Wunderground v.1.13,2013-03-12 03:00:00,
2013-03-11 23:30:00,50.5,33.0,29.70,South,173,6.0,6.0,51,0.00,,,0.00,Wunderground v.1.13,2013-03-12 03:30:00,